Regional Weather Roundup
Issued by NWS

Home | Current Version | Previous Version | Graphics & Text | Print | Product List | Glossary On
Versions: 1 2 3 4 5 6 7 8 9 10 11 12 13 14 15 16 17 18 19 20 21 22 23 24 25 26 27 28 29 30 31 32 33 34 35 36 37 38 39 40 41 42 43 44 45 46 47 48 49 50
000
ASUS43 KBIS 251431
RWRND
NORTH DAKOTA REGIONAL WEATHER ROUNDUP
NATIONAL WEATHER SERVICE EASTERN NORTH DAKOTA/GRAND FORKS ND
900 AM CDT WED APR 25 2018

  NOTE: "FAIR" INDICATES FEW OR NO CLOUDS BELOW 12,000 FEET WITH NO
  SIGNIFICANT WEATHER AND/OR OBSTRUCTIONS TO VISIBILITY.

NDZ001>003-009>011-017-251500-
...NORTHWEST NORTH DAKOTA...

CITY           SKY/WX    TMP DP  RH WIND       PRES   REMARKS
WILLISTON      FAIR      45  31  58 S13       30.03F
MINOT          FAIR      49  30  48 SW20G25   30.05F
MINOT AFB      FAIR      50  29  44 SW18      30.03F
$$

NDZ018>021-031>035-040>046-251500-
...SOUTHWEST NORTH DAKOTA...

CITY           SKY/WX    TMP DP  RH WIND       PRES   REMARKS
BISMARCK       FAIR      45  31  58 SW9       30.18F
DICKINSON      FAIR      47  28  47 SW16      30.10F
GARRISON         N/A     43  32  65 SW14      30.11F
HETTINGER      FAIR      41  30  65 SW8       30.18F
$$

NDZ004>008-012>016-024-026-027-054-251500-
...NORTHEAST NORTH DAKOTA...

CITY           SKY/WX    TMP DP  RH WIND       PRES   REMARKS
GRAND FORKS    FAIR      45  35  68 SW13      30.14F
GRAND FORKS AF FAIR      48  32  55 SW13      30.13F
DEVILS LAKE    FAIR      44  30  57 SW14      30.12F
$$

NDZ022-023-025-028>030-036>039-047>053-251500-
...SOUTHEAST NORTH DAKOTA...

CITY           SKY/WX    TMP DP  RH WIND       PRES   REMARKS
JAMESTOWN      FAIR      47  31  53 SW12      30.17F
FARGO          FAIR      44  30  57 S13       30.22F
WAHPETON       FAIR      43  28  56 S9        30.25F
$$




USA.gov is the U.S. government's official web portal to all federal, state and local government web resources and services.